owner,sensor,date,latitude,longitude,vertical_datum,wind_speed,wind_to_direction,wind_speed_of_gust,qcFlag 
TCOON,ioos:station:TCOON:006:1,2011-07-01T00:00:00Z,27.8217,-97.2040,0.0,5.5,92.0,6.8,'11111222,11111222,11111222' 
TCOON,ioos:station:TCOON:006:1,2011-07-01T02:00:00Z,27.8217,-97.2040,0.0,5.5,98.0,6.9,'11111222,11111222,11111222' 
TCOON,ioos:station:TCOON:006:1,2011-07-01T03:00:00Z,27.8217,-97.2040,0.0,4.0,104.0,6.6,'11111222,11111222,11111222' 
TCOON,ioos:station:TCOON:006:1,2011-07-01T04:00:00Z,27.8217,-97.2040,0.0,3.9,101.0,7.4,'11111222,11111222,11111222' 
TCOON,ioos:station:TCOON:006:1,2011-07-01T05:00:00Z,27.8217,-97.2040,0.0,4.3,112.0,7.3,'11111222,11111222,11111222' 
TCOON,ioos:station:TCOON:006:1,2011-07-01T06:00:00Z,27.8217,-97.2040,0.0,3.9,111.0,7.4,'11111222,11111222,11111222' 
TCOON,ioos:station:TCOON:006:1,2011-07-01T07:00:00Z,27.8217,-97.2040,0.0,4.1,113.0,5.9,'11111222,11111222,11111222' 
TCOON,ioos:station:TCOON:006:1,2011-07-01T08:00:00Z,27.8217,-97.2040,0.0,4.3,117.0,5.7,'11111222,11111222,11111222' 
TCOON,ioos:station:TCOON:006:1,2011-07-01T09:00:00Z,27.8217,-97.2040,0.0,3.1,119.0,5.5,'11111222,11111222,11111222' 
TCOON,ioos:station:TCOON:006:1,2011-07-01T10:00:00Z,27.8217,-97.2040,0.0,4.2,109.0,5.8,'11111222,11111222,11111222' 
TCOON,ioos:station:TCOON:006:1,2011-07-01T11:00:00Z,27.8217,-97.2040,0.0,4.7,105.0,6.1,'11111222,11111222,11111222' 
TCOON,ioos:station:TCOON:006:1,2011-07-01T12:00:00Z,27.8217,-97.2040,0.0,3.2,101.0,5.8,'11111222,11111222,11111222' 
TCOON,ioos:station:TCOON:006:1,2011-07-01T13:00:00Z,27.8217,-97.2040,0.0,3.8,96.0,6.9,'11111222,11111222,11111222' 
TCOON,ioos:station:TCOON:006:1,2011-07-01T14:00:00Z,27.8217,-97.2040,0.0,5.5,97.0,6.8,'11111222,11111222,11111222' 
TCOON,ioos:station:TCOON:006:1,2011-07-01T15:00:00Z,27.8217,-97.2040,0.0,5.2,101.0,6.8,'11111222,11111222,11111222' 
TCOON,ioos:station:TCOON:006:1,2011-07-01T16:00:00Z,27.8217,-97.2040,0.0,5.6,96.0,7.0,'11111222,11111222,11111222' 
TCOON,ioos:station:TCOON:006:1,2011-07-01T17:00:00Z,27.8217,-97.2040,0.0,5.1,112.0,6.9,'11111222,11111222,11111222' 
TCOON,ioos:station:TCOON:006:1,2011-07-01T18:00:00Z,27.8217,-97.2040,0.0,5.0,102.0,7.2,'11111222,11111222,11111222' 
TCOON,ioos:station:TCOON:006:1,2011-07-01T19:00:00Z,27.8217,-97.2040,0.0,4.9,91.0,7.2,'11111222,11111222,11111222' 
TCOON,ioos:station:TCOON:006:1,2011-07-01T20:00:00Z,27.8217,-97.2040,0.0,5.5,95.0,6.6,'11111222,11111222,11111222' 
TCOON,ioos:station:TCOON:006:1,2011-07-01T21:00:00Z,27.8217,-97.2040,0.0,6.2,103.0,8.3,'11111222,11111222,11111222' 
TCOON,ioos:station:TCOON:006:1,2011-07-01T22:00:00Z,27.8217,-97.2040,0.0,5.4,101.0,7.9,'11111222,11111222,11111222' 
TCOON,ioos:station:TCOON:006:1,2011-07-01T23:00:00Z,27.8217,-97.2040,0.0,6.1,99.0,8.2,'11111222,11111222,11111222' 
TCOON,ioos:station:TCOON:006:1,2011-07-02T00:00:00Z,27.8217,-97.2040,0.0,6.0,98.0,7.7,'11111222,11111222,11111222' 
TCOON,ioos:station:TCOON:006:1,2011-07-02T01:00:00Z,27.8217,-97.2040,0.0,4.7,107.0,7.4,'11111222,11111222,11111222' 
TCOON,ioos:station:TCOON:006:1,2011-07-02T02:00:00Z,27.8217,-97.2040,0.0,3.4,127.0,5.9,'11111222,11111222,11111222' 
TCOON,ioos:station:TCOON:006:1,2011-07-02T03:00:00Z,27.8217,-97.2040,0.0,3.8,141.0,6.1,'11111222,11111222,11111222' 
TCOON,ioos:station:TCOON:006:1,2011-07-02T04:00:00Z,27.8217,-97.2040,0.0,3.2,109.0,6.0,'11111222,11111222,11111222' 
TCOON,ioos:station:TCOON:006:1,2011-07-02T05:00:00Z,27.8217,-97.2040,0.0,3.5,110.0,5.5,'11111222,11111222,11111222' 
TCOON,ioos:station:TCOON:006:1,2011-07-02T06:00:00Z,27.8217,-97.2040,0.0,2.2,120.0,5.7,'11111222,11111222,11111222' 
TCOON,ioos:station:TCOON:006:1,2011-07-02T07:00:00Z,27.8217,-97.2040,0.0,2.6,127.0,4.0,'11111222,11111222,11111222' 
TCOON,ioos:station:TCOON:006:1,2011-07-02T08:00:00Z,27.8217,-97.2040,0.0,3.3,133.0,5.5,'11111222,11111222,11111222' 
TCOON,ioos:station:TCOON:006:1,2011-07-02T09:00:00Z,27.8217,-97.2040,0.0,3.9,143.0,5.5,'11111222,11111222,11111222' 
TCOON,ioos:station:TCOON:006:1,2011-07-02T10:00:00Z,27.8217,-97.2040,0.0,3.9,150.0,5.4,'11111222,11111222,11111222' 
TCOON,ioos:station:TCOON:006:1,2011-07-02T11:00:00Z,27.8217,-97.2040,0.0,3.8,149.0,4.9,'11111222,11111222,11111222' 
TCOON,ioos:station:TCOON:006:1,2011-07-02T12:00:00Z,27.8217,-97.2040,0.0,3.5,133.0,4.5,'11111222,11111222,11111222' 
TCOON,ioos:station:TCOON:006:1,2011-07-02T13:00:00Z,27.8217,-97.2040,0.0,1.9,110.0,3.4,'11111222,11111222,11111222' 
TCOON,ioos:station:TCOON:006:1,2011-07-02T14:00:00Z,27.8217,-97.2040,0.0,2.4,120.0,3.8,'11111222,11111222,11111222' 
TCOON,ioos:station:TCOON:006:1,2011-07-02T15:00:00Z,27.8217,-97.2040,0.0,2.7,117.0,4.2,'11111222,11111222,11111222' 
TCOON,ioos:station:TCOON:006:1,2011-07-02T16:00:00Z,27.8217,-97.2040,0.0,2.1,124.0,3.6,'11111222,11111222,11111222' 
TCOON,ioos:station:TCOON:006:1,2011-07-02T17:00:00Z,27.8217,-97.2040,0.0,2.7,112.0,5.3,'11111222,11111222,11111222' 
TCOON,ioos:station:TCOON:006:1,2011-07-02T18:00:00Z,27.8217,-97.2040,0.0,3.7,103.0,6.4,'11111222,11111222,11111222' 
TCOON,ioos:station:TCOON:006:1,2011-07-02T19:00:00Z,27.8217,-97.2040,0.0,4.1,104.0,6.1,'11111222,11111222,11111222' 
TCOON,ioos:station:TCOON:006:1,2011-07-02T20:00:00Z,27.8217,-97.2040,0.0,3.3,120.0,5.5,'11111222,11111222,11111222' 
TCOON,ioos:station:TCOON:006:1,2011-07-02T21:00:00Z,27.8217,-97.2040,0.0,4.0,120.0,5.4,'11111222,11111222,11111222' 
TCOON,ioos:station:TCOON:006:1,2011-07-02T22:00:00Z,27.8217,-97.2040,0.0,3.7,125.0,6.4,'11111222,11111222,11111222' 
TCOON,ioos:station:TCOON:006:1,2011-07-02T23:00:00Z,27.8217,-97.2040,0.0,5.2,132.0,7.9,'11111222,11111222,11111222' 
TCOON,ioos:station:TCOON:006:1,2011-07-03T00:00:00Z,27.8217,-97.2040,0.0,4.8,146.0,6.2,'11111222,11111222,11111222' 
TCOON,ioos:station:TCOON:006:1,2011-07-03T01:00:00Z,27.8217,-97.2040,0.0,5.5,152.0,6.7,'11111222,11111222,11111222' 
TCOON,ioos:station:TCOON:006:1,2011-07-03T02:00:00Z,27.8217,-97.2040,0.0,5.0,155.0,6.7,'11111222,11111222,11111222' 
TCOON,ioos:station:TCOON:006:1,2011-07-03T03:00:00Z,27.8217,-97.2040,0.0,4.8,167.0,6.1,'11111222,11111222,11111222' 
TCOON,ioos:station:TCOON:006:1,2011-07-03T04:00:00Z,27.8217,-97.2040,0.0,4.3,162.0,6.0,'11111222,11111222,11111222' 
TCOON,ioos:station:TCOON:006:1,2011-07-03T05:00:00Z,27.8217,-97.2040,0.0,4.5,173.0,6.0,'11111222,11111222,11111222' 
TCOON,ioos:station:TCOON:006:1,2011-07-03T06:00:00Z,27.8217,-97.2040,0.0,4.5,163.0,5.7,'11111222,11111222,11111222' 
TCOON,ioos:station:TCOON:006:1,2011-07-03T07:00:00Z,27.8217,-97.2040,0.0,4.2,188.0,5.2,'11111222,11111222,11111222' 
TCOON,ioos:station:TCOON:006:1,2011-07-03T08:00:00Z,27.8217,-97.2040,0.0,5.0,200.0,5.7,'11111222,11111222,11111222' 
TCOON,ioos:station:TCOON:006:1,2011-07-03T09:00:00Z,27.8217,-97.2040,0.0,3.9,229.0,5.5,'11111222,11111222,11111222' 
TCOON,ioos:station:TCOON:006:1,2011-07-03T10:00:00Z,27.8217,-97.2040,0.0,4.5,252.0,5.1,'11111222,11111222,11111222' 
TCOON,ioos:station:TCOON:006:1,2011-07-03T11:00:00Z,27.8217,-97.2040,0.0,2.9,254.0,3.3,'11111222,11111222,11111222' 
TCOON,ioos:station:TCOON:006:1,2011-07-03T12:00:00Z,27.8217,-97.2040,0.0,1.9,274.0,3.6,'11111222,11111222,11111222' 
TCOON,ioos:station:TCOON:006:1,2011-07-03T13:00:00Z,27.8217,-97.2040,0.0,2.4,281.0,3.7,'11111222,11111222,11111222' 
TCOON,ioos:station:TCOON:006:1,2011-07-03T14:00:00Z,27.8217,-97.2040,0.0,2.0,283.0,3.3,'11111222,11111222,11111222' 
TCOON,ioos:station:TCOON:006:1,2011-07-03T15:00:00Z,27.8217,-97.2040,0.0,2.6,245.0,3.0,'11111222,11111222,11111222' 
TCOON,ioos:station:TCOON:006:1,2011-07-03T16:00:00Z,27.8217,-97.2040,0.0,1.1,176.0,2.8,'11111222,11111222,11111222' 
TCOON,ioos:station:TCOON:006:1,2011-07-03T17:00:00Z,27.8217,-97.2040,0.0,2.8,146.0,3.6,'11111222,11111222,11111222' 
TCOON,ioos:station:TCOON:006:1,2011-07-03T18:00:00Z,27.8217,-97.2040,0.0,3.5,125.0,4.3,'11111222,11111222,11111222' 
TCOON,ioos:station:TCOON:006:1,2011-07-03T19:00:00Z,27.8217,-97.2040,0.0,4.6,121.0,6.1,'11111222,11111222,11111222' 
TCOON,ioos:station:TCOON:006:1,2011-07-03T20:00:00Z,27.8217,-97.2040,0.0,6.3,126.0,8.0,'11111222,11111222,11111222' 
TCOON,ioos:station:TCOON:006:1,2011-07-03T21:00:00Z,27.8217,-97.2040,0.0,6.3,118.0,8.1,'11111222,11111222,11111222' 
TCOON,ioos:station:TCOON:006:1,2011-07-03T22:00:00Z,27.8217,-97.2040,0.0,7.5,148.0,8.8,'11111222,11111222,11111222' 
TCOON,ioos:station:TCOON:006:1,2011-07-03T23:00:00Z,27.8217,-97.2040,0.0,8.3,143.0,9.9,'11111222,11111222,11111222' 
TCOON,ioos:station:TCOON:006:1,2011-07-04T00:00:00Z,27.8217,-97.2040,0.0,7.8,154.0,9.3,'11111222,11111222,11111222' 
TCOON,ioos:station:TCOON:006:1,2011-07-04T01:00:00Z,27.8217,-97.2040,0.0,6.6,160.0,9.4,'11111222,11111222,11111222' 
TCOON,ioos:station:TCOON:006:1,2011-07-04T02:00:00Z,27.8217,-97.2040,0.0,6.5,158.0,7.8,'11111222,11111222,11111222' 
TCOON,ioos:station:TCOON:006:1,2011-07-04T03:00:00Z,27.8217,-97.2040,0.0,7.0,176.0,8.7,'11111222,11111222,11111222' 
TCOON,ioos:station:TCOON:006:1,2011-07-04T04:00:00Z,27.8217,-97.2040,0.0,6.7,181.0,8.7,'11111222,11111222,11111222' 
TCOON,ioos:station:TCOON:006:1,2011-07-04T05:00:00Z,27.8217,-97.2040,0.0,6.4,185.0,8.0,'11111222,11111222,11111222' 
TCOON,ioos:station:TCOON:006:1,2011-07-04T06:00:00Z,27.8217,-97.2040,0.0,4.9,191.0,6.5,'11111222,11111222,11111222' 
TCOON,ioos:station:TCOON:006:1,2011-07-04T07:00:00Z,27.8217,-97.2040,0.0,4.5,213.0,5.9,'11111222,11111222,11111222' 
TCOON,ioos:station:TCOON:006:1,2011-07-04T08:00:00Z,27.8217,-97.2040,0.0,4.7,219.0,5.6,'11111222,11111222,11111222' 
TCOON,ioos:station:TCOON:006:1,2011-07-04T09:00:00Z,27.8217,-97.2040,0.0,4.1,222.0,5.3,'11111222,11111222,11111222' 
TCOON,ioos:station:TCOON:006:1,2011-07-04T10:00:00Z,27.8217,-97.2040,0.0,3.5,221.0,3.9,'11111222,11111222,11111222' 
TCOON,ioos:station:TCOON:006:1,2011-07-04T11:00:00Z,27.8217,-97.2040,0.0,3.8,236.0,4.4,'11111222,11111222,11111222' 
TCOON,ioos:station:TCOON:006:1,2011-07-04T12:00:00Z,27.8217,-97.2040,0.0,3.3,242.0,4.4,'11111222,11111222,11111222' 
TCOON,ioos:station:TCOON:006:1,2011-07-04T13:00:00Z,27.8217,-97.2040,0.0,2.9,246.0,3.7,'11111222,11111222,11111222' 
TCOON,ioos:station:TCOON:006:1,2011-07-04T14:00:00Z,27.8217,-97.2040,0.0,2.8,245.0,4.0,'11111222,11111222,11111222' 
TCOON,ioos:station:TCOON:006:1,2011-07-04T15:00:00Z,27.8217,-97.2040,0.0,1.7,151.0,3.1,'11111222,11111222,11111222' 
TCOON,ioos:station:TCOON:006:1,2011-07-04T16:00:00Z,27.8217,-97.2040,0.0,2.5,122.0,4.3,'11111222,11111222,11111222' 
TCOON,ioos:station:TCOON:006:1,2011-07-04T17:00:00Z,27.8217,-97.2040,0.0,3.3,124.0,4.4,'11111222,11111222,11111222' 
TCOON,ioos:station:TCOON:006:1,2011-07-04T18:00:00Z,27.8217,-97.2040,0.0,5.1,134.0,6.4,'11111222,11111222,11111222' 
TCOON,ioos:station:TCOON:006:1,2011-07-04T19:00:00Z,27.8217,-97.2040,0.0,5.1,128.0,6.6,'11111222,11111222,11111222' 
TCOON,ioos:station:TCOON:006:1,2011-07-04T20:00:00Z,27.8217,-97.2040,0.0,4.9,124.0,7.6,'11111222,11111222,11111222' 
TCOON,ioos:station:TCOON:006:1,2011-07-04T21:00:00Z,27.8217,-97.2040,0.0,5.7,126.0,8.3,'11111222,11111222,11111222' 
TCOON,ioos:station:TCOON:006:1,2011-07-04T22:00:00Z,27.8217,-97.2040,0.0,7.2,137.0,8.4,'11111222,11111222,11111222' 
TCOON,ioos:station:TCOON:006:1,2011-07-04T23:00:00Z,27.8217,-97.2040,0.0,6.2,141.0,8.4,'11111222,11111222,11111222' 
TCOON,ioos:station:TCOON:006:1,2011-07-05T00:00:00Z,27.8217,-97.2040,0.0,6.2,139.0,8.1,'11111222,11111222,11111222' 
TCOON,ioos:station:TCOON:006:1,2011-07-05T01:00:00Z,27.8217,-97.2040,0.0,6.5,128.0,7.7,'11111222,11111222,11111222' 
TCOON,ioos:station:TCOON:006:1,2011-07-05T02:00:00Z,27.8217,-97.2040,0.0,5.4,145.0,6.8,'11111222,11111222,11111222' 
TCOON,ioos:station:TCOON:006:1,2011-07-05T03:00:00Z,27.8217,-97.2040,0.0,6.1,143.0,8.0,'11111222,11111222,11111222' 
TCOON,ioos:station:TCOON:006:1,2011-07-05T04:00:00Z,27.8217,-97.2040,0.0,5.1,144.0,6.6,'11111222,11111222,11111222' 
TCOON,ioos:station:TCOON:006:1,2011-07-05T05:00:00Z,27.8217,-97.2040,0.0,4.8,154.0,6.3,'11111222,11111222,11111222' 
TCOON,ioos:station:TCOON:006:1,2011-07-05T06:00:00Z,27.8217,-97.2040,0.0,4.5,158.0,6.2,'11111222,11111222,11111222' 
TCOON,ioos:station:TCOON:006:1,2011-07-05T07:00:00Z,27.8217,-97.2040,0.0,5.3,154.0,6.7,'11111222,11111222,11111222' 
TCOON,ioos:station:TCOON:006:1,2011-07-05T08:00:00Z,27.8217,-97.2040,0.0,4.7,160.0,6.6,'11111222,11111222,11111222' 
TCOON,ioos:station:TCOON:006:1,2011-07-05T09:00:00Z,27.8217,-97.2040,0.0,4.3,171.0,5.7,'11111222,11111222,11111222' 
TCOON,ioos:station:TCOON:006:1,2011-07-05T10:00:00Z,27.8217,-97.2040,0.0,4.5,173.0,5.8,'11111222,11111222,11111222' 
TCOON,ioos:station:TCOON:006:1,2011-07-05T11:00:00Z,27.8217,-97.2040,0.0,3.1,232.0,5.0,'11111222,11111222,11111222' 
TCOON,ioos:station:TCOON:006:1,2011-07-05T12:00:00Z,27.8217,-97.2040,0.0,3.3,259.0,3.6,'11111222,11111222,11111222' 
TCOON,ioos:station:TCOON:006:1,2011-07-05T13:00:00Z,27.8217,-97.2040,0.0,1.9,277.0,3.1,'11111222,11111222,11111222' 
TCOON,ioos:station:TCOON:006:1,2011-07-05T14:00:00Z,27.8217,-97.2040,0.0,2.2,271.0,2.5,'11111222,11111222,11111222' 
TCOON,ioos:station:TCOON:006:1,2011-07-05T15:00:00Z,27.8217,-97.2040,0.0,0.6,199.0,1.3,'11111222,11111222,11111222' 
TCOON,ioos:station:TCOON:006:1,2011-07-05T16:00:00Z,27.8217,-97.2040,0.0,1.2,140.0,2.0,'11111222,11111222,11111222' 
TCOON,ioos:station:TCOON:006:1,2011-07-05T17:00:00Z,27.8217,-97.2040,0.0,2.6,136.0,3.5,'11111222,11111222,11111222' 
TCOON,ioos:station:TCOON:006:1,2011-07-05T18:00:00Z,27.8217,-97.2040,0.0,3.4,125.0,4.9,'11111222,11111222,11111222' 
TCOON,ioos:station:TCOON:006:1,2011-07-05T19:00:00Z,27.8217,-97.2040,0.0,3.3,122.0,5.6,'11111222,11111222,11111222' 
TCOON,ioos:station:TCOON:006:1,2011-07-05T20:00:00Z,27.8217,-97.2040,0.0,4.6,120.0,6.7,'11111222,11111222,11111222' 
TCOON,ioos:station:TCOON:006:1,2011-07-05T21:00:00Z,27.8217,-97.2040,0.0,4.6,114.0,6.6,'11111222,11111222,11111222' 
TCOON,ioos:station:TCOON:006:1,2011-07-05T22:00:00Z,27.8217,-97.2040,0.0,3.7,110.0,6.9,'11111222,11111222,11111222' 
TCOON,ioos:station:TCOON:006:1,2011-07-05T23:00:00Z,27.8217,-97.2040,0.0,3.6,124.0,6.2,'11111222,11111222,11111222' 
TCOON,ioos:station:TCOON:006:1,2011-07-06T00:00:00Z,27.8217,-97.2040,0.0,3.5,111.0,5.6,'11111222,11111222,11111222' 
TCOON,ioos:station:TCOON:006:1,2011-07-06T01:00:00Z,27.8217,-97.2040,0.0,4.9,130.0,7.4,'11111222,11111222,11111222' 
TCOON,ioos:station:TCOON:006:1,2011-07-06T02:00:00Z,27.8217,-97.2040,0.0,4.3,142.0,6.6,'11111222,11111222,11111222' 
TCOON,ioos:station:TCOON:006:1,2011-07-06T03:00:00Z,27.8217,-97.2040,0.0,3.8,129.0,5.7,'11111222,11111222,11111222' 
TCOON,ioos:station:TCOON:006:1,2011-07-06T04:00:00Z,27.8217,-97.2040,0.0,4.6,159.0,6.2,'11111222,11111222,11111222' 
TCOON,ioos:station:TCOON:006:1,2011-07-06T05:00:00Z,27.8217,-97.2040,0.0,4.4,154.0,6.2,'11111222,11111222,11111222' 
TCOON,ioos:station:TCOON:006:1,2011-07-06T06:00:00Z,27.8217,-97.2040,0.0,4.5,165.0,5.5,'11111222,11111222,11111222' 
TCOON,ioos:station:TCOON:006:1,2011-07-06T07:00:00Z,27.8217,-97.2040,0.0,4.8,179.0,6.8,'11111222,11111222,11111222' 
TCOON,ioos:station:TCOON:006:1,2011-07-06T08:00:00Z,27.8217,-97.2040,0.0,3.7,178.0,5.4,'11111222,11111222,11111222' 
TCOON,ioos:station:TCOON:006:1,2011-07-06T09:00:00Z,27.8217,-97.2040,0.0,4.5,186.0,5.5,'11111222,11111222,11111222' 
TCOON,ioos:station:TCOON:006:1,2011-07-06T10:00:00Z,27.8217,-97.2040,0.0,3.6,188.0,4.7,'11111222,11111222,11111222' 
TCOON,ioos:station:TCOON:006:1,2011-07-06T11:00:00Z,27.8217,-97.2040,0.0,2.8,233.0,3.3,'11111222,11111222,11111222' 
TCOON,ioos:station:TCOON:006:1,2011-07-06T12:00:00Z,27.8217,-97.2040,0.0,2.8,229.0,3.1,'11111222,11111222,11111222' 
TCOON,ioos:station:TCOON:006:1,2011-07-06T13:00:00Z,27.8217,-97.2040,0.0,2.1,266.0,3.0,'11111222,11111222,11111222' 
TCOON,ioos:station:TCOON:006:1,2011-07-06T14:00:00Z,27.8217,-97.2040,0.0,2.7,257.0,3.1,'11111222,11111222,11111222' 
TCOON,ioos:station:TCOON:006:1,2011-07-06T15:00:00Z,27.8217,-97.2040,0.0,2.4,270.0,2.8,'11111222,11111222,11111222' 
TCOON,ioos:station:TCOON:006:1,2011-07-06T16:00:00Z,27.8217,-97.2040,0.0,1.6,137.0,2.0,'11111222,11111222,11111222' 
TCOON,ioos:station:TCOON:006:1,2011-07-06T17:00:00Z,27.8217,-97.2040,0.0,2.6,127.0,4.2,'11111222,11111222,11111222' 
TCOON,ioos:station:TCOON:006:1,2011-07-06T18:00:00Z,27.8217,-97.2040,0.0,3.4,115.0,4.7,'11111222,11111222,11111222' 
TCOON,ioos:station:TCOON:006:1,2011-07-06T19:00:00Z,27.8217,-97.2040,0.0,4.8,127.0,5.9,'11111222,11111222,11111222' 
TCOON,ioos:station:TCOON:006:1,2011-07-06T20:00:00Z,27.8217,-97.2040,0.0,5.4,130.0,6.3,'11111222,11111222,11111222' 
TCOON,ioos:station:TCOON:006:1,2011-07-06T21:00:00Z,27.8217,-97.2040,0.0,6.0,148.0,7.5,'11111222,11111222,11111222' 
TCOON,ioos:station:TCOON:006:1,2011-07-06T22:00:00Z,27.8217,-97.2040,0.0,6.1,131.0,7.9,'11111222,11111222,11111222' 
TCOON,ioos:station:TCOON:006:1,2011-07-06T23:00:00Z,27.8217,-97.2040,0.0,6.4,142.0,7.8,'11111222,11111222,11111222' 
TCOON,ioos:station:TCOON:006:1,2011-07-07T00:00:00Z,27.8217,-97.2040,0.0,5.9,150.0,7.0,'11111222,11111222,11111222' 
TCOON,ioos:station:TCOON:006:1,2011-07-07T01:00:00Z,27.8217,-97.2040,0.0,5.7,144.0,8.0,'11111222,11111222,11111222' 
TCOON,ioos:station:TCOON:006:1,2011-07-07T02:00:00Z,27.8217,-97.2040,0.0,5.9,145.0,6.6,'11111222,11111222,11111222' 
TCOON,ioos:station:TCOON:006:1,2011-07-07T03:00:00Z,27.8217,-97.2040,0.0,5.6,154.0,6.9,'11111222,11111222,11111222' 
TCOON,ioos:station:TCOON:006:1,2011-07-07T04:00:00Z,27.8217,-97.2040,0.0,5.5,152.0,7.1,'11111222,11111222,11111222' 
TCOON,ioos:station:TCOON:006:1,2011-07-07T05:00:00Z,27.8217,-97.2040,0.0,5.0,152.0,6.4,'11111222,11111222,11111222' 
TCOON,ioos:station:TCOON:006:1,2011-07-07T06:00:00Z,27.8217,-97.2040,0.0,4.6,163.0,6.8,'11111222,11111222,11111222' 
TCOON,ioos:station:TCOON:006:1,2011-07-07T07:00:00Z,27.8217,-97.2040,0.0,4.1,174.0,5.3,'11111222,11111222,11111222' 
TCOON,ioos:station:TCOON:006:1,2011-07-07T08:00:00Z,27.8217,-97.2040,0.0,5.8,175.0,6.9,'11111222,11111222,11111222' 
TCOON,ioos:station:TCOON:006:1,2011-07-07T09:00:00Z,27.8217,-97.2040,0.0,4.7,167.0,6.8,'11111222,11111222,11111222' 
TCOON,ioos:station:TCOON:006:1,2011-07-07T10:00:00Z,27.8217,-97.2040,0.0,4.6,161.0,5.8,'11111222,11111222,11111222' 
TCOON,ioos:station:TCOON:006:1,2011-07-07T11:00:00Z,27.8217,-97.2040,0.0,4.2,232.0,4.8,'11111222,11111222,11111222' 
TCOON,ioos:station:TCOON:006:1,2011-07-07T12:00:00Z,27.8217,-97.2040,0.0,3.0,235.0,4.2,'11111222,11111222,11111222' 
TCOON,ioos:station:TCOON:006:1,2011-07-07T13:00:00Z,27.8217,-97.2040,0.0,2.8,241.0,3.4,'11111222,11111222,11111222' 
TCOON,ioos:station:TCOON:006:1,2011-07-07T14:00:00Z,27.8217,-97.2040,0.0,1.6,268.0,2.4,'11111222,11111222,11111222' 
TCOON,ioos:station:TCOON:006:1,2011-07-07T15:00:00Z,27.8217,-97.2040,0.0,2.2,261.0,3.1,'11111222,11111222,11111222' 
TCOON,ioos:station:TCOON:006:1,2011-07-07T16:00:00Z,27.8217,-97.2040,0.0,2.1,161.0,2.8,'11111222,11111222,11111222' 
TCOON,ioos:station:TCOON:006:1,2011-07-07T17:00:00Z,27.8217,-97.2040,0.0,2.2,126.0,2.8,'11111222,11111222,11111222' 
TCOON,ioos:station:TCOON:006:1,2011-07-07T18:00:00Z,27.8217,-97.2040,0.0,4.9,128.0,6.5,'11111222,11111222,11111222' 
TCOON,ioos:station:TCOON:006:1,2011-07-07T19:00:00Z,27.8217,-97.2040,0.0,5.3,139.0,6.7,'11111222,11111222,11111222' 
TCOON,ioos:station:TCOON:006:1,2011-07-07T20:00:00Z,27.8217,-97.2040,0.0,6.0,139.0,7.0,'11111222,11111222,11111222' 
TCOON,ioos:station:TCOON:006:1,2011-07-07T21:00:00Z,27.8217,-97.2040,0.0,5.8,123.0,8.1,'11111222,11111222,11111222' 
TCOON,ioos:station:TCOON:006:1,2011-07-07T22:00:00Z,27.8217,-97.2040,0.0,6.3,134.0,8.0,'11111222,11111222,11111222' 
TCOON,ioos:station:TCOON:006:1,2011-07-07T23:00:00Z,27.8217,-97.2040,0.0,7.6,135.0,8.3,'11111222,11111222,11111222' 
TCOON,ioos:station:TCOON:006:1,2011-07-08T00:00:00Z,27.8217,-97.2040,0.0,7.4,144.0,8.0,'11111222,11111222,11111222' 
TCOON,ioos:station:TCOON:006:1,2011-07-08T01:00:00Z,27.8217,-97.2040,0.0,5.5,151.0,7.9,'11111222,11111222,11111222' 
TCOON,ioos:station:TCOON:006:1,2011-07-08T02:00:00Z,27.8217,-97.2040,0.0,4.4,136.0,6.4,'11111222,11111222,11111222' 
TCOON,ioos:station:TCOON:006:1,2011-07-08T03:00:00Z,27.8217,-97.2040,0.0,4.7,147.0,6.2,'11111222,11111222,11111222' 
TCOON,ioos:station:TCOON:006:1,2011-07-08T04:00:00Z,27.8217,-97.2040,0.0,5.3,158.0,6.8,'11111222,11111222,11111222' 
TCOON,ioos:station:TCOON:006:1,2011-07-08T05:00:00Z,27.8217,-97.2040,0.0,4.9,161.0,5.9,'11111222,11111222,11111222' 
TCOON,ioos:station:TCOON:006:1,2011-07-08T06:00:00Z,27.8217,-97.2040,0.0,5.6,168.0,6.6,'11111222,11111222,11111222' 
TCOON,ioos:station:TCOON:006:1,2011-07-08T07:00:00Z,27.8217,-97.2040,0.0,5.8,179.0,6.8,'11111222,11111222,11111222' 
TCOON,ioos:station:TCOON:006:1,2011-07-08T08:00:00Z,27.8217,-97.2040,0.0,6.0,188.0,6.8,'11111222,11111222,11111222' 
TCOON,ioos:station:TCOON:006:1,2011-07-08T09:00:00Z,27.8217,-97.2040,0.0,6.2,216.0,7.1,'11111222,11111222,11111222' 
TCOON,ioos:station:TCOON:006:1,2011-07-08T10:00:00Z,27.8217,-97.2040,0.0,5.3,217.0,6.7,'11111222,11111222,11111222' 
TCOON,ioos:station:TCOON:006:1,2011-07-08T11:00:00Z,27.8217,-97.2040,0.0,3.7,209.0,5.3,'11111222,11111222,11111222' 
TCOON,ioos:station:TCOON:006:1,2011-07-08T12:00:00Z,27.8217,-97.2040,0.0,2.7,233.0,3.1,'11111222,11111222,11111222' 
TCOON,ioos:station:TCOON:006:1,2011-07-08T13:00:00Z,27.8217,-97.2040,0.0,1.8,271.0,2.7,'11111222,11111222,11111222' 
TCOON,ioos:station:TCOON:006:1,2011-07-08T14:00:00Z,27.8217,-97.2040,0.0,2.1,263.0,2.6,'11111222,11111222,11111222' 
TCOON,ioos:station:TCOON:006:1,2011-07-08T15:00:00Z,27.8217,-97.2040,0.0,2.2,161.0,2.4,'11111222,11111222,11111222' 
TCOON,ioos:station:TCOON:006:1,2011-07-08T16:00:00Z,27.8217,-97.2040,0.0,2.0,162.0,3.6,'11111222,11111222,11111222' 
TCOON,ioos:station:TCOON:006:1,2011-07-08T17:00:00Z,27.8217,-97.2040,0.0,5.5,167.0,6.2,'11111222,11111222,11111222' 
TCOON,ioos:station:TCOON:006:1,2011-07-08T18:00:00Z,27.8217,-97.2040,0.0,4.1,139.0,6.5,'11111222,11111222,11111222' 
TCOON,ioos:station:TCOON:006:1,2011-07-08T19:00:00Z,27.8217,-97.2040,0.0,4.9,136.0,6.5,'11111222,11111222,11111222' 
TCOON,ioos:station:TCOON:006:1,2011-07-08T20:00:00Z,27.8217,-97.2040,0.0,3.9,132.0,6.8,'11111222,11111222,11111222' 
TCOON,ioos:station:TCOON:006:1,2011-07-08T21:00:00Z,27.8217,-97.2040,0.0,4.4,136.0,6.4,'11111222,11111222,11111222' 
TCOON,ioos:station:TCOON:006:1,2011-07-08T22:00:00Z,27.8217,-97.2040,0.0,3.9,129.0,6.0,'11111222,11111222,11111222' 
TCOON,ioos:station:TCOON:006:1,2011-07-08T23:00:00Z,27.8217,-97.2040,0.0,4.3,115.0,7.7,'11111222,11111222,11111222' 
TCOON,ioos:station:TCOON:006:1,2011-07-09T00:00:00Z,27.8217,-97.2040,0.0,4.2,141.0,8.0,'11111222,11111222,11111222' 
TCOON,ioos:station:TCOON:006:1,2011-07-09T01:00:00Z,27.8217,-97.2040,0.0,4.8,123.0,7.3,'11111222,11111222,11111222' 
TCOON,ioos:station:TCOON:006:1,2011-07-09T02:00:00Z,27.8217,-97.2040,0.0,6.4,142.0,9.0,'11111222,11111222,11111222' 
TCOON,ioos:station:TCOON:006:1,2011-07-09T03:00:00Z,27.8217,-97.2040,0.0,7.4,152.0,8.6,'11111222,11111222,11111222' 
TCOON,ioos:station:TCOON:006:1,2011-07-09T04:00:00Z,27.8217,-97.2040,0.0,6.6,154.0,8.4,'11111222,11111222,11111222' 
TCOON,ioos:station:TCOON:006:1,2011-07-09T05:00:00Z,27.8217,-97.2040,0.0,6.9,163.0,9.1,'11111222,11111222,11111222' 
TCOON,ioos:station:TCOON:006:1,2011-07-09T06:00:00Z,27.8217,-97.2040,0.0,7.1,173.0,8.4,'11111222,11111222,11111222' 
TCOON,ioos:station:TCOON:006:1,2011-07-09T07:00:00Z,27.8217,-97.2040,0.0,6.7,181.0,8.9,'11111222,11111222,11111222' 
TCOON,ioos:station:TCOON:006:1,2011-07-09T08:00:00Z,27.8217,-97.2040,0.0,7.7,178.0,9.8,'11111222,11111222,11111222' 
TCOON,ioos:station:TCOON:006:1,2011-07-09T09:00:00Z,27.8217,-97.2040,0.0,5.6,187.0,7.8,'11111222,11111222,11111222' 
TCOON,ioos:station:TCOON:006:1,2011-07-09T10:00:00Z,27.8217,-97.2040,0.0,5.1,188.0,6.8,'11111222,11111222,11111222' 
TCOON,ioos:station:TCOON:006:1,2011-07-09T11:00:00Z,27.8217,-97.2040,0.0,4.9,179.0,5.6,'11111222,11111222,11111222' 
TCOON,ioos:station:TCOON:006:1,2011-07-09T12:00:00Z,27.8217,-97.2040,0.0,4.9,187.0,6.0,'11111222,11111222,11111222' 